Location: Castelbiague
(43.0361°N, 0.9246°E)
Time: 09:26:16
(UTC+00:00)

USA 215 - Pass Details

Date: 21 October 2021
Orbit: 1099 x 1109 km, 123.0° (Epoch: 20 November)

Event Time Altitude Azimuth Distance (km) Brightness Sun altitude
Exits shadow 19:34:36 21° 27° (NNE) 2,268 4.7 -28.1°
Maximum altitude 19:37:08 26° 354° (N) 2,001 4.7 -28.6°
Drops below altitude 10° 19:42:21 10° 301° (WNW) 2,965 6.4 -29.5°
Sets 19:45:14 0° 290° (WNW) 3,924 7.3 -30.0°
